Regional Weather Roundup
Issued by NWS Mt. Holly, NJ

Home | Current Version | Previous Version | Text Only | Print | Product List | Glossary On
Versions: 1 2 3 4 5 6 7 8 9 10 11 12 13 14 15 16 17 18 19 20 21 22 23 24 25 26 27
000
ASUS41 KPHI 221212
RWRPHI

REGIONAL WEATHER ROUNDUP
NATIONAL WEATHER SERVICE MOUNT HOLLY NJ
800 AM EDT SUN OCT 22 2017

NOTE:  "FAIR" INDICATES FEW OR NO CLOUDS BELOW 12,000 FEET WITH NO
SIGNIFICANT WEATHER AND/OR OBSTRUCTIONS TO VISIBILITY.

 * = STATION DOES NOT REPORT PRECIPITATION (E.G. RAIN, SNOW, ETC.)
        OR FOG.

NJZ015>026-221300-
SOUTHERN NEW JERSEY

CITY           SKY/WX    TMP DP  RH WIND       PRES   REMARKS
POMONA         FOG       49  49 100 CALM      30.41R VSB<1/4
6HR MIN TEMP:  45; 6HR MAX TEMP:  49;

WILDWOOD*      LGT RAIN  50  50 100 CALM      30.41R VSB<1/4
MILLVILLE      FOG       47  47 100 CALM      30.41R VSB<1/4
WRIGHTSTOWN    FOG       45  45 100 CALM      30.38R VSB 1/8
MOUNT HOLLY      N/A    N/A N/A N/A MISG      30.41R
TRENTON        PTCLDY    48  45  89 CALM      30.40R
6HR MIN TEMP:  43; 6HR MAX TEMP:  49;


$$
NJZ001>014-221300-
NORTHERN NEW JERSEY

CITY           SKY/WX    TMP DP  RH WIND       PRES   REMARKS
SUSSEX         PTCLDY    39  39 100 CALM      30.42R
ANDOVER*         N/A     43  42  97 CALM      30.42R
MORRISTOWN     MOCLDY    41  39  93 CALM      30.42R
NEWARK         MOCLDY    54  49  83 CALM      30.40R
TETERBORO      PTCLDY    50  45  83 CALM      30.40R
CALDWELL       PTCLDY    44  44 100 CALM      30.42R
SOMERVILLE     PTCLDY    41  41 100 MISG      30.39R
ALLAIRE*       CLEAR     49  45  86 CALM      30.42R
TOMS RIVER*    FOG       44  43  96 CALM      30.42R VSB<1/4

$$
PAZ043-044-047-054-055-060>062-066>071-221300-
EASTERN PENNSYLVANIA

CITY           SKY/WX    TMP DP  RH WIND       PRES   REMARKS
PHILADELPHIA   FOG       52  50  93 CALM      30.41R VSB 1/4
6HR MIN TEMP:  51; 6HR MAX TEMP:  55;

NORTH PHILA    CLEAR     49  45  86 CALM      30.42R
BLUE BELL*     CLEAR     43  43 100 CALM      30.42R
DOYLESTOWN     PTCLDY    45  43  93 CALM      30.40R
QUAKERTOWN*    CLEAR     41  39  93 CALM      30.42R
PERKASIE*      FAIR      41  41 100 CALM      30.41R
POTTSTOWN      CLEAR     42  42 100 CALM      30.42R
LANCASTER      CLEAR     44  44 100 E5        30.40R FOG
COATESVILLE    CLEAR     50  45  81 CALM      30.41R
READING        CLEAR     44  44 100 CALM      30.40R
6HR MIN TEMP:  43; 6HR MAX TEMP:  50;

ALLENTOWN      PTCLDY    45  42  89 CALM      30.41R
6HR MIN TEMP:  42; 6HR MAX TEMP:  47;

MOUNT POCONO   CLOUDY    43  41  93 CALM      30.42R
6HR MIN TEMP:  39; 6HR MAX TEMP:  43;

HAZLETON       PTCLDY    39  34  81 CALM      30.44R
LEHIGHTON      FAIR      36  36 100 CALM      30.43R
WILKES BARRE   PTCLDY    46  42  86 CALM      30.41R

$$
DEZALL-MDZ008-012-015-019-020-221300-
DELAWARE AND EASTERN MARYLAND

CITY           SKY/WX    TMP DP  RH WIND       PRES   REMARKS
WILMINGTON     CLOUDY    48  47  96 CALM      30.41R
6HR MIN TEMP:  46; 6HR MAX TEMP:  51;

DOVER          PTCLDY    49  48  99 CALM      30.40R
GEORGETOWN     FOG       50  49  96 CALM      30.41R VSB 1/4
6HR MIN TEMP:  47; 6HR MAX TEMP:  51;

EASTON         MOCLDY    50  48  93 CALM      30.43R
PATUXENT       MOCLDY    51  51 100 CALM      30.39R
OCEAN CITY     CLEAR     49  49 100 CALM      30.41R
WALLOPS ISLAND PTCLDY    53  53 100 CALM      30.40R
CAMBRIDGE      CLEAR     46  46 100 CALM      30.40R
SALISBURY      FOG       47  47 100 E3        30.40R VSB 1

$$
PAZ001-021-NYZ056-072-MDZ011-DCZ001-221300-
OTHER NEARBY LOCATIONS

CITY           SKY/WX    TMP DP  RH WIND       PRES   REMARKS
HARRISBURG     MOCLDY    47  46  97 CALM      30.39R
STATE COLLEGE  CLEAR     43  43 100 CALM      30.37R
WILLIAMSPORT   PTCLDY    44  43  96 CALM      30.39R
BINGHAMTON     CLEAR     51  39  63 SE5       30.38R
NEW YORK CITY  PTCLDY    58  51  78 CALM      30.42R
BALTIMORE      PTCLDY    47  46  97 CALM      30.39R
WASHINGTON DC  MOCLDY    55  51  86 E6        30.39S

$$




USA.gov is the U.S. government's official web portal to all federal, state and local government web resources and services.